Regional Weather Roundup
Issued by NWS

Home | Current Version | Previous Version | Graphics & Text | Print | Product List | Glossary On
Versions: 1 2 3 4 5 6 7 8 9 10 11 12 13 14 15 16 17 18 19 20 21 22 23 24 25 26 27 28 29 30 31 32 33 34 35 36 37 38 39 40 41 42 43 44 45 46 47 48 49 50
000
ASUS45 KBOI 061510
RWRID

IDAHO REGIONAL WEATHER ROUNDUP
NATIONAL WEATHER SERVICE BOISE ID
800 AM MST SAT FEB 06 2016

NOTE: "FAIR" INDICATES FEW OR NO CLOUDS BELOW 12000 FEET
WITH NO SIGNIFICANT WEATHER AND/OR OBSTRUCTIONS TO VISIBILITY

IDZ012-014-061600-
SOUTHWEST IDAHO


CITY           SKY/WX    TMP DP  RH WIND       PRES   REMARKS
BOISE          CLOUDY    34  27  75 SE14      30.41S WCI  25
CALDWELL       CLOUDY    33  26  75 E6        30.43F WCI  28
MOUNTAIN HOME  MOCLDY    28  28 100 E17       30.43R WCI  15
$$

IDZ016-017-061600-
SOUTHCENTRAL IDAHO


CITY           SKY/WX    TMP DP  RH WIND       PRES   REMARKS
BURLEY         CLOUDY    22  19  89 S3        30.40F
JEROME         MOCLDY    25  19  78 E12       30.43S WCI  14
TWIN FALLS     MOCLDY    27  23  85 SE6       30.42F WCI  20
$$

IDZ019>023-061600-
SOUTHEAST IDAHO


CITY           SKY/WX    TMP DP  RH WIND       PRES   REMARKS
IDAHO FALLS    CLOUDY    14  12  92 CALM      30.43F
POCATELLO      CLOUDY    17  15  92 NE6       30.44F WCI   9
REXBURG        CLOUDY    18  15  88 N5        30.43F WCI  11
$$

IDZ006-010-011-018-031-032-061600-
CENTRAL IDAHO MOUNTAINS


CITY           SKY/WX    TMP DP  RH WIND       PRES   REMARKS
MCCALL         CLOUDY    28  24  85 N3        30.31R
HAILEY         MOCLDY    18  14  86 NW7       30.42S WCI   8
STANLEY          N/A     20  13  74 CALM      30.32S
SALMON         CLOUDY    12  10  92 CALM      30.29R
CHALLIS        MOCLDY    13  10  88 S3        30.29F
$$

IDZ002-004-006-007-026-061600-
NORTHERN IDAHO


CITY           SKY/WX    TMP DP  RH WIND       PRES   REMARKS
LEWISTON       MOCLDY    47  26  44 W22G35    30.31R
LOWELL           N/A     37  35  92 CALM      30.36R
COEUR D`ALENE  PTCLDY    36  28  75 W12       30.23R WCI  27
MULLAN PASS    MIX PCPN  23  21  92 W13G23    30.12R WCI  11
$$



USA.gov is the U.S. government's official web portal to all federal, state and local government web resources and services.